Wetterstation Vordersexau
Wetterdaten: Jahr 2018
Datum Temp. A. Feuchte A. Luftdruck Regen Wind Richtung Taupunkt Windchill Windben
01.01.2018 8,1 C 74 % 1006,4 hPa 1,6 l/m 21,9 km/h W-SW 3,7 C 1,0 C 12,2 km/h
02.01.2018 6,5 C 78 % 1012,7 hPa 1,0 l/m 15,8 km/h W-SW 2,9 C 0,9 C 8,8 km/h
03.01.2018 9,0 C 77 % 1003,5 hPa 5,7 l/m 23,1 km/h W 5,2 C 2,0 C 12,8 km/h
04.01.2018 9,6 C 83 % 1001,3 hPa 4,7 l/m 21,1 km/h SW 6,9 C 3,2 C 11,7 km/h
05.01.2018 10,2 C 79 % 1001,3 hPa 6,7 l/m 7,2 km/h W-SW 6,7 C 8,1 C 4,0 km/h
06.01.2018 8,6 C 78 % 1004,4 hPa 0,5 l/m 0,3 km/h SO 4,9 C 8,6 C 0,2 km/h
07.01.2018 5,2 C 84 % 1011,9 hPa 0,0 l/m 0,0 km/h N-NO 2,7 C 5,2 C 0,0 km/h
08.01.2018 3,3 C 79 % 1014,4 hPa 0,5 l/m 0,3 km/h O-SO 0,0 C 3,2 C 0,2 km/h
09.01.2018 5,2 C 79 % 1010,0 hPa 0,0 l/m 0,0 km/h W-NW 1,9 C 5,2 C 0,0 km/h
10.01.2018 6,3 C 79 % 1009,5 hPa 0,0 l/m 0,0 km/h O-SO 2,8 C 6,3 C 0,0 km/h
11.01.2018 4,5 C 84 % 1012,7 hPa 1,0 l/m 0,0 km/h W-NW 2,1 C 4,5 C 0,0 km/h
12.01.2018 1,8 C 82 % 1020,7 hPa 0,0 l/m 0,0 km/h NW -0,9 C 1,8 C 0,0 km/h
13.01.2018 1,8 C 78 % 1019,6 hPa 0,0 l/m 2,1 km/h SO -1,8 C 1,2 C 1,1 km/h
14.01.2018 0,6 C 79 % 1017,9 hPa 0,0 l/m 0,0 km/h NO -2,7 C 0,6 C 0,0 km/h
15.01.2018 2,8 C 80 % 1011,7 hPa 0,0 l/m 10,2 km/h W-SW -0,5 C -0,6 C 5,7 km/h
16.01.2018 7,3 C 83 % 999,5 hPa 4,7 l/m 19,1 km/h W 4,6 C 1,1 C 10,6 km/h
17.01.2018 3,8 C 81 % 1006,1 hPa 3,6 l/m 13,1 km/h W-SW 0,7 C -1,4 C 7,3 km/h
18.01.2018 6,3 C 82 % 1006,8 hPa 4,1 l/m 25,4 km/h W 3,5 C -2,0 C 14,1 km/h
19.01.2018 5,3 C 81 % 1009,6 hPa 0,5 l/m 9,3 km/h W 2,3 C 2,1 C 5,2 km/h
20.01.2018 5,2 C 82 % 1004,5 hPa 2,1 l/m 16,7 km/h W 2,3 C -1,1 C 9,3 km/h
21.01.2018 4,4 C 81 % 1011,7 hPa 1,0 l/m 0,8 km/h NO 1,4 C 4,1 C 0,4 km/h
22.01.2018 8,5 C 81 % 1009,9 hPa 6,7 l/m 10,1 km/h NO 5,4 C 5,5 C 5,6 km/h
23.01.2018 6,4 C 80 % 1023,5 hPa 0,5 l/m 1,9 km/h S 3,1 C 5,9 C 1,1 km/h
24.01.2018 10,3 C 76 % 1020,2 hPa 0,0 l/m 6,5 km/h S-SW 6,1 C 8,4 C 3,6 km/h
25.01.2018 11,1 C 67 % 1013,7 hPa 0,0 l/m 10,4 km/h SO 5,0 C 8,1 C 5,8 km/h
26.01.2018 6,8 C 82 % 1015,6 hPa 5,2 l/m 0,1 km/h W-NW 4,0 C 6,8 C 0,0 km/h
27.01.2018 6,2 C 81 % 1027,9 hPa 1,0 l/m 0,0 km/h W-NW 3,2 C 6,2 C 0,0 km/h
28.01.2018 7,7 C 80 % 1033,8 hPa 0,0 l/m 9,6 km/h W 4,4 C 4,7 C 5,4 km/h
29.01.2018 7,5 C 83 % 1030,5 hPa 0,0 l/m 11,2 km/h W 4,7 C 4,0 C 6,2 km/h
30.01.2018 8,4 C 83 % 1026,7 hPa 0,0 l/m 0,3 km/h W-SW 5,6 C 8,4 C 0,2 km/h
31.01.2018 7,7 C 80 % 1012,9 hPa 1,6 l/m 18,2 km/h W-SW 4,4 C 1,4 C 10,1 km/h
02.02.2018 1,4 C 83 % 1005,9 hPa 0,0 l/m 5,0 km/h W-SW -1,2 C -0,6 C 2,8 km/h
03.02.2018 2,1 C 83 % 1005,3 hPa 0,0 l/m 3,3 km/h SO -0,5 C 0,7 C 1,9 km/h
04.02.2018 2,1 C 78 % 1011,9 hPa 0,5 l/m 1,9 km/h SO -1,5 C 1,5 C 1,0 km/h
05.02.2018 1,6 C 82 % 1015,8 hPa 0,0 l/m 0,0 km/h W -1,2 C 1,6 C 0,0 km/h
06.02.2018 1,1 C 81 % 1008,9 hPa 0,0 l/m 0,0 km/h N-NW -1,9 C 1,1 C 0,0 km/h
07.02.2018 0,2 C 85 % 1009,9 hPa 0,0 l/m 0,4 km/h W-SW -2,0 C 0,1 C 0,2 km/h
08.02.2018 1,2 C 84 % 1015,8 hPa 1,0 l/m 0,0 km/h W-SW -1,3 C 1,2 C 0,0 km/h
09.02.2018 2,0 C 82 % 1013,3 hPa 0,0 l/m 2,8 km/h W-NW -0,8 C 1,0 C 1,5 km/h
10.02.2018 2,4 C 80 % 1014,8 hPa 0,0 l/m 7,1 km/h W -0,7 C -0,4 C 4,0 km/h
11.02.2018 3,1 C 79 % 1007,6 hPa 0,0 l/m 11,8 km/h S -0,2 C -1,3 C 6,6 km/h
12.02.2018 1,5 C 78 % 1013,4 hPa 1,0 l/m 0,3 km/h SO -2,0 C 1,4 C 0,2 km/h
13.02.2018 0,8 C 68 % 1011,7 hPa 15,0 l/m 10,0 km/h O-SO -4,8 C -3,2 C 5,6 km/h
14.02.2018 1,0 C 67 % 1013,1 hPa 0,0 l/m 4,5 km/h O-SO -4,9 C -0,3 C 2,5 km/h
15.02.2018 3,6 C 83 % 1014,0 hPa 7,8 l/m 2,4 km/h N-NO 0,9 C 2,8 C 1,3 km/h
16.02.2018 7,2 C 77 % 1021,6 hPa 3,6 l/m 0,4 km/h N-NO 3,3 C 7,1 C 0,2 km/h
17.02.2018 1,4 C 80 % 1016,6 hPa 13,5 l/m 0,3 km/h W -1,7 C 1,4 C 0,2 km/h
18.02.2018 1,1 C 82 % 1022,3 hPa 2,6 l/m 0,8 km/h W -1,7 C 0,7 C 0,4 km/h
19.02.2018 1,5 C 81 % 1016,1 hPa 0,0 l/m 0,0 km/h NO -1,4 C 1,5 C 0,0 km/h
20.02.2018 0,8 C 80 % 1013,1 hPa 0,0 l/m 0,8 km/h N -2,3 C 0,5 C 0,4 km/h
21.02.2018 2,0 C 68 % 1014,9 hPa 0,0 l/m 7,2 km/h N-NO -3,6 C -0,4 C 4,0 km/h
22.02.2018 0,1 C 67 % 1011,8 hPa 0,0 l/m 4,8 km/h N-NO -5,4 C -1,7 C 2,7 km/h
23.02.2018 0,5 C 68 % 1011,2 hPa 0,0 l/m 2,4 km/h N-NO -4,8 C -0,4 C 1,3 km/h
24.02.2018 2,7 C 58 % 1012,1 hPa 0,0 l/m 2,7 km/h NO -5,5 C 2,0 C 1,5 km/h
25.02.2018 -1,2 C 45 % 1017,1 hPa 0,0 l/m 6,4 km/h NO -12,2 C -3,7 C 3,6 km/h
26.02.2018 -5,0 C 47 % 1017,3 hPa 0,0 l/m 3,6 km/h N-NO -14,8 C -6,3 C 2,0 km/h
27.02.2018 -6,6 C 55 % 1013,3 hPa 0,0 l/m 1,8 km/h N -14,3 C -7,1 C 1,0 km/h
28.02.2018 -4,0 C 52 % 1009,6 hPa 0,0 l/m 0,9 km/h O-SO -13,3 C -4,5 C 0,5 km/h
01.03.2018 -1,0 C 55 % 998,8 hPa 0,0 l/m 0,3 km/h S-SW -9,0 C -1,1 C 0,2 km/h
02.03.2018 -0,6 C 74 % 993,2 hPa 0,0 l/m 0,5 km/h S -4,8 C -0,8 C 0,3 km/h
03.03.2018 -0,4 C 85 % 994,6 hPa 3,6 l/m 0,0 km/h W-SW -2,6 C -0,4 C 0,0 km/h
04.03.2018 6,6 C 76 % 995,6 hPa 2,6 l/m 1,0 km/h NO 2,5 C 6,3 C 0,6 km/h
05.03.2018 7,6 C 74 % 992,7 hPa 0,0 l/m 0,0 km/h NO 2,9 C 7,6 C 0,0 km/h
06.03.2018 6,3 C 79 % 989,9 hPa 2,6 l/m 1,1 km/h NO 2,8 C 6,1 C 0,6 km/h
07.03.2018 6,5 C 75 % 996,8 hPa 0,5 l/m 20,2 km/h SW 2,3 C -0,4 C 11,2 km/h
08.03.2018 9,4 C 62 % 1004,1 hPa 0,0 l/m 17,6 km/h S-SW 2,1 C 3,9 C 9,8 km/h
09.03.2018 11,4 C 58 % 1005,9 hPa 0,0 l/m 11,6 km/h S 3,4 C 8,1 C 6,5 km/h
10.03.2018 11,6 C 77 % 1002,5 hPa 1,6 l/m 2,2 km/h S-SO 7,6 C 11,1 C 1,2 km/h
11.03.2018 9,8 C 81 % 995,3 hPa 1,6 l/m 0,1 km/h SO 6,7 C 9,8 C 0,1 km/h
12.03.2018 9,9 C 77 % 996,3 hPa 3,6 l/m 16,2 km/h S-SW 6,0 C 5,3 C 9,0 km/h
13.03.2018 7,4 C 80 % 1005,9 hPa 4,1 l/m 28,0 km/h W-SW 4,2 C -1,0 C 15,6 km/h
14.03.2018 10,2 C 69 % 1007,6 hPa 0,0 l/m 2,2 km/h S 4,1 C 9,9 C 1,2 km/h
15.03.2018 4,8 C 83 % 995,5 hPa 0,5 l/m 3,0 km/h W 2,2 C 4,0 C 1,7 km/h
16.03.2018 9,3 C 74 % 999,4 hPa 0,5 l/m 7,6 km/h O-NO 4,4 C 7,0 C 4,2 km/h
17.03.2018 3,7 C 82 % 994,8 hPa 0,0 l/m 0,9 km/h O-NO 0,9 C 3,5 C 0,5 km/h
18.03.2018 0,5 C 84 % 998,4 hPa 3,1 l/m 1,2 km/h O -1,8 C 0,2 C 0,7 km/h
19.03.2018 1,5 C 80 % 1004,8 hPa 0,0 l/m 0,0 km/h SW -1,6 C 1,5 C 0,0 km/h
20.03.2018 2,7 C 64 % 1013,3 hPa 0,0 l/m 3,5 km/h NO -3,7 C 1,7 C 1,9 km/h
21.03.2018 3,6 C 58 % 1023,0 hPa 0,0 l/m 5,2 km/h NO -4,9 C 2,0 C 2,9 km/h
22.03.2018 1,8 C 71 % 1017,5 hPa 0,5 l/m 8,8 km/h SW -3,3 C -1,5 C 4,9 km/h
23.03.2018 5,2 C 78 % 1006,2 hPa 0,5 l/m 0,3 km/h NO 1,5 C 5,2 C 0,2 km/h
24.03.2018 5,0 C 74 % 998,1 hPa 0,0 l/m 0,9 km/h NO 0,4 C 4,6 C 0,5 km/h
25.03.2018 8,5 C 65 % 1003,3 hPa 0,0 l/m 0,2 km/h NO 1,2 C 8,5 C 0,1 km/h
26.03.2018 6,9 C 72 % 1011,3 hPa 1,6 l/m 0,7 km/h NO 1,8 C 6,8 C 0,4 km/h
27.03.2018 8,2 C 72 % 1011,9 hPa 1,6 l/m 7,6 km/h O-SO 2,9 C 6,0 C 4,2 km/h
28.03.2018 10,0 C 81 % 1004,5 hPa 6,7 l/m 20,1 km/h SW 6,9 C 4,1 C 11,2 km/h
29.03.2018 7,1 C 75 % 1005,4 hPa 0,5 l/m 4,1 km/h N-NO 2,8 C 6,1 C 2,3 km/h
30.03.2018 6,7 C 78 % 999,9 hPa 2,6 l/m 2,8 km/h NO 3,0 C 6,0 C 1,6 km/h
31.03.2018 8,7 C 70 % 998,0 hPa 0,0 l/m 0,4 km/h O-NO 3,0 C 8,6 C 0,2 km/h
01.04.2018 6,0 C 82 % 1008,9 hPa 2,6 l/m 17,7 km/h SW 3,2 C 0,0 C 9,8 km/h
02.04.2018 8,5 C 70 % 1007,3 hPa 0,5 l/m 1,3 km/h NO 2,9 C 8,3 C 0,7 km/h
03.04.2018 15,2 C 57 % 1003,1 hPa 0,0 l/m 3,1 km/h W-SW 6,0 C 14,7 C 1,7 km/h
04.04.2018 12,8 C 71 % 1003,5 hPa 2,1 l/m 5,5 km/h S-SO 7,3 C 11,3 C 3,0 km/h
05.04.2018 10,6 C 71 % 1012,6 hPa 1,0 l/m 15,2 km/h SW 5,4 C 6,4 C 8,5 km/h
06.04.2018 10,8 C 67 % 1015,3 hPa 0,0 l/m 2,6 km/h W 4,2 C 10,4 C 1,5 km/h
07.04.2018 15,0 C 60 % 1009,5 hPa 0,0 l/m 0,3 km/h NO 5,9 C 15,0 C 0,2 km/h
08.04.2018 17,0 C 62 % 1004,2 hPa 0,0 l/m 1,2 km/h NO 8,8 C 16,9 C 0,7 km/h
09.04.2018 15,0 C 67 % 1001,8 hPa 0,5 l/m 4,5 km/h NO 8,6 C 14,3 C 2,5 km/h
10.04.2018 10,6 C 80 % 1002,1 hPa 1,0 l/m 3,9 km/h N-NO 7,1 C 9,6 C 2,2 km/h
11.04.2018 12,9 C 60 % 1001,5 hPa 0,0 l/m 3,7 km/h NO 4,5 C 12,4 C 2,0 km/h
12.04.2018 14,8 C 61 % 996,7 hPa 0,0 l/m 5,6 km/h W-SW 6,4 C 13,7 C 3,1 km/h
13.04.2018 12,4 C 70 % 1006,4 hPa 0,0 l/m 4,1 km/h O-NO 6,4 C 11,2 C 2,3 km/h
14.04.2018 13,6 C 66 % 1015,2 hPa 0,0 l/m 1,0 km/h O-NO 6,8 C 13,6 C 0,6 km/h
15.04.2018 15,9 C 68 % 1010,6 hPa 3,1 l/m 1,3 km/h N-NW 9,5 C 15,8 C 0,7 km/h
16.04.2018 16,2 C 67 % 1012,5 hPa 0,5 l/m 0,8 km/h SO 9,6 C 16,1 C 0,5 km/h
17.04.2018 17,3 C 62 % 1021,3 hPa 0,0 l/m 1,2 km/h O-NO 8,9 C 17,2 C 0,7 km/h
18.04.2018 19,4 C 52 % 1025,0 hPa 0,0 l/m 2,6 km/h NO 7,4 C 19,4 C 1,4 km/h
19.04.2018 18,4 C 55 % 1023,1 hPa 0,0 l/m 0,2 km/h O-NO 8,3 C 18,4 C 0,1 km/h
20.04.2018 19,5 C 53 % 1019,9 hPa 0,0 l/m 0,1 km/h NO 9,0 C 19,5 C 0,1 km/h
21.04.2018 20,1 C 55 % 1016,2 hPa 0,0 l/m 0,0 km/h O-NO 9,9 C 20,1 C 0,0 km/h
22.04.2018 20,7 C 53 % 1012,5 hPa 0,0 l/m 0,9 km/h NO 9,7 C 20,6 C 0,5 km/h
Min-Datum 28.02.18 18.04.18 06.03.18 53 Tage 01.01.18 - 28.02.18 14.02.18 01.01.18
Min-Zeit 05:53 15:53 03:53 - 14:53 - 05:53 07:53 14:53
Minimum -13,4 C 21 % 988,7 hPa - 0,0 km/h - -17,0 C -16,7 C 0,0 km/h
Max-Datum 18.04.18 03.02.18 28.01.18 13.02.18 13.03.18 - 16.04.18 18.04.18 13.03.18
Max-Zeit 16:53 23:53 11:53 16:53 06:53 - 09:53 16:53 06:53
Maximum 32,8 C 87 % 1034,8 hPa 15,0 l/m 81,6 km/h
W-SW
- 15,9 C 32,8 C 45,4 km/h
W-SW
Durchschnitt 6,6 C 73 % 1009,6 hPa #148,6 l/m 5,2 km/h NO 1,8 C 5,0 C 2,9 km/h

Durchschnitt Minimum Temp.1,9 C
Durchschnitt Maximum Temp.13,1 C
www.sexauwetter.de